Concordia, KS

6:08 PM CST on February 06, 2016 (GMT -0600)
Blosser Municipal

Weather History for KCNK - October, 2012

Change the Weather History Date:

Wednesday, October 24, 2012

  Actual Average Record
Temperature  
Mean Temperature 57 °F 52 °F  
Max Temperature 67 °F 64 °F 89 °F (1939)
Min Temperature 47 °F 41 °F 22 °F (1887)
Degree Days  
Heating Degree Days 8 13  
Month to date heating degree days 225 218  
Since 1 July heating degree days 302 291  
Cooling Degree Days 0 0  
Month to date cooling degree days 3 20  
Year to date cooling degree days 1643 1346  
Growing Degree Days 8 (Base 50)    
Moisture  
Dew Point 54 °F    
Average Humidity 84    
Maximum Humidity 100    
Minimum Humidity 67    
Precipitation  
Precipitation 0.10 in 0.06 in 0.92 in (1899)
Month to date precipitation 3.04 1.57  
Year to date precipitation 22.37 25.58  
Snow  
Snow 0.00 in 0.00 in 0.60 in (1957)
Month to date snowfall 0.0 0.1  
Year to date snowfall 5.8 13.8  
Since 1 July snowfall 0.0 0.1  
Snow Depth 0.00 in    
Sea Level Pressure  
Sea Level Pressure 29.71 in    
Wind  
Wind Speed 8 mph (NNW)    
Max Wind Speed 29 mph    
Max Gust Speed 37 mph    
Visibility 5 miles    
Events Fog , Rain    
T = Trace of Precipitation, MM = Missing Value Source: NWS Daily Summary

Daily Weather History Graph

Daily Weather History Graph

Search for Another Location

Airport or City:

Trip Planner

Search our weather history database for the weather conditions in past years. The results will help you decide how hot, cold, wet, or windy it might be!

Date:

Astronomy

Oct. 24, 2012 Rise Set
Actual Time 7:50 AM CDT 6:38 PM CDT
Civil Twilight 7:23 AM CDT 7:05 PM CDT
Nautical Twilight 6:51 AM CDT 7:37 PM CDT
Astronomical Twilight 6:20 AM CDT 8:08 PM CDT
Moon 3:53 PM CDT (10/24) 2:48 AM CDT (10/24)
Length of Visible Light 11h 42m
Length of Day
10h 47m
Waxing Gibbous, 76% of the Moon is Illuminated
Oct 24
Waxing Gibbous
Oct 29
Full
Nov 6
Last Quarter
Nov 13
New
Nov 20
First Quarter

Hourly Weather History & Observations

Time (CDT) Temp. Dew Point Humidity Pressure Visibility Wind Dir Wind Speed Gust Speed Precip Events Conditions
12:55 AM 54.0 °F 51.1 °F 90% 29.71 in 10.0 mi ESE 3.5 mph - N/A   Clear
1:55 AM 54.0 °F 52.0 °F 93% 29.69 in 6.0 mi East 4.6 mph - N/A   Clear
2:55 AM 53.1 °F 52.0 °F 96% 29.67 in 6.0 mi East 6.9 mph - N/A   Clear
3:55 AM 52.0 °F 51.1 °F 97% 29.65 in 8.0 mi East 3.5 mph - N/A   Clear
4:55 AM 52.0 °F 51.1 °F 97% 29.65 in 2.5 mi Calm Calm - N/A   Clear
5:18 AM 53.6 °F 51.8 °F 94% 29.69 in 1.5 mi NNE 3.5 mph - N/A   Clear
5:24 AM 53.6 °F 53.6 °F 100% 29.69 in 1.2 mi Calm Calm - N/A   Partly Cloudy
5:28 AM 53.6 °F 53.6 °F 100% 29.69 in 0.8 mi Calm Calm - N/A   Mist
5:55 AM 53.1 °F 52.0 °F 96% 29.67 in 0.2 mi Calm Calm - N/A Fog Fog
6:55 AM 53.6 °F 53.6 °F 100% 29.70 in 0.2 mi SE 3.5 mph - N/A Fog Fog
7:55 AM 57.9 °F 55.9 °F 93% 29.69 in 0.2 mi South 6.9 mph - N/A Fog Fog
8:02 AM 60.8 °F 60.8 °F 100% 29.71 in 1.8 mi South 8.1 mph - N/A   Scattered Clouds
8:09 AM 60.8 °F 60.8 °F 100% 29.71 in 6.0 mi Variable 4.6 mph - N/A   Partly Cloudy
8:13 AM 55.4 °F 55.4 °F 100% 29.71 in 1.0 mi WSW 4.6 mph - N/A   Mist
8:20 AM 53.6 °F 51.8 °F 94% 29.72 in 0.2 mi West 4.6 mph - N/A Fog Fog
8:55 AM 55.9 °F 55.0 °F 97% 29.71 in 0.5 mi WNW 5.8 mph - N/A Fog Fog
9:55 AM 57.0 °F 55.9 °F 96% 29.74 in 0.2 mi West 8.1 mph - N/A Fog Fog
10:35 AM 59.0 °F 59.0 °F 100% 29.76 in 1.5 mi West 5.8 mph - N/A   Overcast
10:39 AM 59.0 °F 59.0 °F 100% 29.76 in 2.0 mi WNW 5.8 mph - N/A   Overcast
10:50 AM 59.0 °F 57.2 °F 94% 29.76 in 4.0 mi WNW 5.8 mph - N/A   Overcast
10:55 AM 59.0 °F 57.2 °F 94% 29.76 in 4.0 mi West 6.9 mph - N/A   Overcast
11:12 AM 60.8 °F 57.2 °F 88% 29.76 in 6.0 mi WNW 6.9 mph - N/A   Mostly Cloudy
11:19 AM 62.6 °F 57.2 °F 82% 29.76 in 7.0 mi NW 6.9 mph - N/A   Scattered Clouds
11:55 AM 63.0 °F 55.9 °F 78% 29.74 in 6.0 mi NW 9.2 mph - N/A   Haze
12:03 PM 62.6 °F 55.4 °F 77% 29.76 in 7.0 mi WNW 6.9 mph - N/A   Mostly Cloudy
12:55 PM 66.9 °F 55.9 °F 68% 29.73 in 6.0 mi NW 6.9 mph - N/A   Haze
1:03 PM 64.4 °F 55.4 °F 73% 29.74 in 7.0 mi Variable 6.9 mph - N/A   Scattered Clouds
1:27 PM 64.4 °F 55.4 °F 73% 29.74 in 6.0 mi NW 12.7 mph - N/A   Haze
1:55 PM 63.0 °F 55.9 °F 78% 29.72 in 6.0 mi NNW 10.4 mph - N/A   Haze
2:23 PM 64.4 °F 55.4 °F 73% 29.72 in 8.0 mi NNW 9.2 mph - N/A   Mostly Cloudy
2:55 PM 64.9 °F 55.0 °F 70% 29.71 in 8.0 mi NNW 8.1 mph - N/A   Partly Cloudy
3:55 PM 64.9 °F 55.0 °F 70% 29.70 in 9.0 mi NW 6.9 mph - N/A   Clear
4:55 PM 64.9 °F 54.0 °F 68% 29.69 in 6.0 mi NW 5.8 mph - N/A   Haze
5:55 PM 61.0 °F 54.0 °F 78% 29.70 in 8.0 mi North 9.2 mph - N/A   Scattered Clouds
6:55 PM 57.0 °F 53.1 °F 87% 29.70 in 8.0 mi North 9.2 mph - N/A   Mostly Cloudy
7:11 PM 55.4 °F 53.6 °F 94% 29.70 in 9.0 mi North 9.2 mph - N/A   Overcast
7:55 PM 55.9 °F 52.0 °F 87% 29.70 in 10.0 mi North 6.9 mph - N/A   Overcast
8:55 PM 54.0 °F 50.0 °F 86% 29.70 in 10.0 mi NNE 11.5 mph - N/A   Overcast
9:55 PM 53.1 °F 50.0 °F 89% 29.73 in 10.0 mi North 11.5 mph - N/A   Overcast
10:55 PM 51.1 °F 48.9 °F 92% 29.70 in 9.0 mi NNE 12.7 mph - 0.00 in   Overcast
11:37 PM 50.0 °F 48.2 °F 94% 29.68 in 6.0 mi NE 11.5 mph 19.6 mph N/A   Overcast
11:55 PM 50.0 °F 48.0 °F 93% 29.65 in 4.0 mi NE 11.5 mph - 0.00 in Rain Light Rain